Regional Weather Roundup
Issued by NWS

Home | Current Version | Previous Version | Graphics & Text | Print | Product List | Glossary On
Versions: 1 2 3 4 5 6 7 8 9 10 11 12 13 14 15 16 17 18 19 20 21 22 23 24 25 26 27 28 29 30 31 32 33 34 35 36 37 38 39 40 41 42 43 44 45 46 47 48 49 50
000
ASUS45 KTFX 271110
RWRMT
MONTANA REGIONAL WEATHER ROUNDUP
NATIONAL WEATHER SERVICE GREAT FALLS MT
500 AM MDT WED MAY 27 2015

NOTE: "FAIR" INDICATES FEW OR NO CLOUDS BELOW 12000 FEET WITH NO
SIGNIFICANT WEATHER AND/OR OBSTRUCTIONS TO VISIBILITY.

MTZ001>007-043-271200-
WEST OF THE DIVIDE

CITY           SKY/WX    TMP DP  RH WIND       PRES   REMARKS
KALISPELL      CLOUDY    46  43  89 S3        30.00R
MISSOULA       MOCLDY    46  43  89 NW5       30.04R
BUTTE          LGT RAIN  46  43  89 CALM      30.06S
MULLAN PASS    MOCLDY    44  39  82 S3        30.05S
$$

MTZ008-052>055-271200-
SOUTHWEST MONTANA

CITY           SKY/WX    TMP DP  RH WIND       PRES   REMARKS
BOZEMAN        CLOUDY    49  47  93 S5        30.04S
DILLON         LGT RAIN  49  46  90 CALM      30.04S
W YELLOWSTONE  CLOUDY    41  39  93 CALM      30.10S
$$

MTZ009-010-012-014-046-048-049-054-271200-
EAST SLOPES AND CENTRAL MONTANA

CITY           SKY/WX    TMP DP  RH WIND       PRES   REMARKS
CUT BANK       CLOUDY    48  45  89 N9        30.02R
GREAT FALLS    MOCLDY    48  46  93 W10       30.01S
MALMSTROM AFB  MOCLDY    50  47  89 W12       30.01R
HELENA         LGT RAIN  51  48  89 CALM      30.03S
$$

MTZ011-013-016-021-045-047-050-051-271200-
NORTH CENTRAL MONTANA

CITY           SKY/WX    TMP DP  RH WIND       PRES   REMARKS
HAVRE          CLOUDY    53  50  89 CALM      29.96S
LEWISTOWN      PTCLDY    45  41  86 S5        30.00S
N BAR RANCH    PTSUNNY   46  43  87 W5        30.01F
$$

MTZ017>020-022>027-061-062-271200-
NORTHEAST MONTANA

CITY           SKY/WX    TMP DP  RH WIND       PRES   REMARKS
GLASGOW          N/A     61  32  33 MISG      29.92R
JORDAN           N/A     57  53  86 W6        29.91F
SIDNEY         CLEAR     46  41  81 CALM      29.93R
WOLF POINT     MOCLDY    53  47  79 W3        29.90R
$$

MTZ028>42-056>058-271200-
SOUTHCENTRAL AND SOUTHEAST MONTANA

CITY           SKY/WX    TMP DP  RH WIND       PRES   REMARKS
BAKER          PTCLDY    46  44  93 E7        29.95S
BILLINGS       CLOUDY    52  49  89 SW8       29.97R
LIVINGSTON     CLOUDY    52  43  71 W14       30.01S
MILES CITY     CLOUDY    56  50  80 CALM      29.90S
$$

REGIONAL REPORTS...DAKOTAS

CITY           SKY/WX    TMP DP  RH WIND       PRES   REMARKS
WILLISTON      CLEAR     51  44  77 SW3       29.92R
MINOT          CLEAR     58  45  62 SW10      29.89R
DICKINSON      CLEAR     49  43  80 CALM      29.94S
BEACH          FAIR      45  45 100 S5        29.95S
CROSBY         FAIR      54  48  82 CALM      29.93R
WATFORD CITY   FAIR      46  41  81 CALM      29.92S
BISMARCK       CLEAR     53  49  86 W3        29.95R
GRAND FORKS    PTCLDY    57  50  77 N14       29.86R
FARGO          CLEAR     56  48  74 SW3       29.86R
BUFFALO SD       N/A     52  46  80 S6        29.90S
RAPID CITY     MOCLDY    49  47  93 SE5       29.98R
$$

REGIONAL REPORTS...WYOMING/IDAHO/WASHINGTON

CITY           SKY/WX    TMP DP  RH WIND       PRES   REMARKS
GILLETTE       MOCLDY    47  45  93 S8        29.97S
SHERIDAN       CLOUDY    48  46  93 NW8       29.96R
BUFFALO WY     CLOUDY    52  47  83 SE6       29.97F
CODY           CLOUDY    50  46  87 CALM      30.01R
YELLOWSTONE LA   N/A     37  35  92 CALM      30.15S
IDAHO FALLS    CLOUDY    46  44  93 CALM      30.06F
SALMON         CLOUDY    48  43  81 CALM      30.03R
BOISE          PTCLDY    59  43  55 NE9       29.96R
SPOKANE        PTCLDY    50  47  89 CALM      29.99S
$$

REGIONAL REPORTS...ALBERTA

CITY           SKY/WX    TMP DP  RH WIND       PRES   REMARKS
EDMONTON       CLEAR     50  46  87 W5        29.97S
CALGARY        CLOUDY    52  45  76 NW3       30.05S
LETHBRIDGE     MOCLDY    48  46  93 W7        30.02R FOG
MEDICINE HAT   PTCLDY    55  48  76 S2        29.97S
$$

REGIONAL REPORTS...SASKATCHEWAN

CITY           SKY/WX    TMP DP  RH WIND       PRES   REMARKS
SWIFT CURRENT  PTCLDY    52  46  82 E12       29.94R
SASKATOON      PTCLDY    45  41  87 NE9       30.04S
$$



USA.gov is the U.S. government's official web portal to all federal, state and local government web resources and services.